| time (UTC) | temp F | wind direction | speed MPH | gust MPH | rain 1hr in | rain 24hr in | rain mn in | humidity % | barometer mb |
| 20260505092630 | 69 | 179 | 0.0 | 2.0 | 0.00 | 0.00 | 0.00 | 99 | 1006.8 |
| 20260505092129 | 69 | 171 | 1.0 | 2.0 | 0.00 | 0.00 | 0.00 | 99 | 1006.9 |
| 20260505091625 | 69 | 175 | 1.0 | 1.0 | 0.00 | 0.00 | 0.00 | 99 | 1006.8 |
| 20260505091124 | 69 | 175 | 0.0 | 1.0 | 0.00 | 0.00 | 0.00 | 99 | 1006.8 |
| 20260505090621 | 70 | 186 | 0.0 | 1.0 | 0.00 | 0.00 | 0.00 | 99 | 1007.0 |
| 20260505090119 | 70 | 181 | 1.0 | 3.0 | 0.00 | 0.00 | 0.00 | 99 | 1006.9 |
| 20260505085616 | 70 | 165 | 0.0 | 3.0 | 0.00 | 0.00 | 0.00 | 99 | 1006.9 |
| 20260505085115 | 70 | 168 | 0.0 | 2.0 | 0.00 | 0.00 | 0.00 | 99 | 1006.7 |
| 20260505084612 | 70 | 199 | 2.0 | 2.0 | 0.00 | 0.00 | 0.00 | 99 | 1007.1 |
| 20260505084110 | 70 | 179 | 0.0 | 1.0 | 0.00 | 0.00 | 0.00 | 99 | 1007.0 |
| 20260505083608 | 70 | 183 | 0.0 | 1.0 | 0.00 | 0.00 | 0.00 | 99 | 1007.0 |
| 20260505083104 | 70 | 169 | 0.0 | 2.0 | 0.00 | 0.00 | 0.00 | 99 | 1007.2 |
| 20260505082559 | 70 | 165 | 0.0 | 2.0 | 0.00 | 0.00 | 0.00 | 99 | 1007.2 |
| 20260505082057 | 70 | 195 | 0.0 | 2.0 | 0.00 | 0.00 | 0.00 | 99 | 1007.1 |
| 20260505081553 | 70 | 180 | 1.0 | 1.0 | 0.00 | 0.00 | 0.00 | 99 | 1007.2 |
| 20260505081050 | 70 | 191 | 0.0 | 2.0 | 0.00 | 0.00 | 0.00 | 99 | 1007.3 |
| 20260505080546 | 70 | 195 | 0.0 | 1.0 | 0.00 | 0.00 | 0.00 | 99 | 1007.2 |
| 20260505080043 | 70 | 178 | 1.0 | 2.0 | 0.00 | 0.00 | 0.00 | 99 | 1007.4 |
| 20260505075539 | 70 | 197 | 1.0 | 3.0 | 0.00 | 0.00 | 0.00 | 99 | 1007.4 |
| 20260505075036 | 70 | 175 | 0.0 | 5.0 | 0.00 | 0.00 | 0.00 | 99 | 1007.2 |
| 20260505074533 | 70 | 153 | 0.0 | 6.0 | 0.00 | 0.00 | 0.00 | 99 | 1007.2 |
| 20260505074030 | 70 | 194 | 0.0 | 5.0 | 0.00 | 0.00 | 0.00 | 99 | 1007.3 |
| 20260505073527 | 70 | 180 | 1.0 | 7.0 | 0.00 | 0.00 | 0.00 | 99 | 1007.3 |
| 20260505073026 | 70 | 184 | 2.0 | 5.0 | 0.00 | 0.00 | 0.00 | 99 | 1007.3 |
| 20260505072521 | 70 | 187 | 1.0 | 3.0 | 0.00 | 0.00 | 0.00 | 98 | 1007.3 |
| 20260505072018 | 70 | 196 | 3.0 | 5.0 | 0.00 | 0.00 | 0.00 | 98 | 1007.4 |
| 20260505071513 | 70 | 194 | 1.0 | 5.0 | 0.00 | 0.00 | 0.00 | 98 | 1007.6 |
| 20260505071012 | 70 | 202 | 2.0 | 6.0 | 0.00 | 0.00 | 0.00 | 98 | 1007.7 |
| 20260505070509 | 70 | 161 | 1.0 | 6.0 | 0.00 | 0.00 | 0.00 | 98 | 1007.8 |
| 20260505070005 | 70 | 207 | 2.0 | 5.0 | 0.00 | 0.00 | 0.00 | 98 | 1008.1 |
| 20260505065501 | 70 | 182 | 3.0 | 7.0 | 0.00 | 0.00 | 0.00 | 98 | 1008.0 |
| 20260505064957 | 70 | 163 | 3.0 | 3.0 | 0.00 | 0.00 | 0.00 | 97 | 1007.9 |
| 20260505064454 | 70 | 165 | 2.0 | 3.0 | 0.00 | 0.00 | 0.00 | 97 | 1008.1 |
| 20260505063953 | 70 | 153 | 2.0 | 7.0 | 0.00 | 0.00 | 0.00 | 97 | 1008.1 |
| 20260505063449 | 70 | 177 | 3.0 | 3.0 | 0.00 | 0.00 | 0.00 | 97 | 1008.0 |
| 20260505062945 | 70 | 188 | 1.0 | 7.0 | 0.00 | 0.00 | 0.00 | 97 | 1008.4 |
| 20260505062442 | 70 | 160 | 2.0 | 6.0 | 0.00 | 0.00 | 0.00 | 97 | 1008.1 |
| 20260505061939 | 70 | 168 | 4.0 | 5.0 | 0.00 | 0.00 | 0.00 | 96 | 1008.1 |
| 20260505061437 | 70 | 179 | 2.0 | 5.0 | 0.00 | 0.00 | 0.00 | 96 | 1008.3 |
| 20260505060935 | 70 | 157 | 3.0 | 5.0 | 0.00 | 0.00 | 0.00 | 96 | 1008.6 |
| 20260505060432 | 70 | 208 | 3.0 | 7.0 | 0.00 | 0.00 | 0.00 | 96 | 1008.4 |
| 20260505055927 | 70 | 196 | 2.0 | 5.0 | 0.00 | 0.00 | 0.00 | 96 | 1008.4 |
| 20260505055424 | 70 | 170 | 3.0 | 5.0 | 0.00 | 0.00 | 0.00 | 96 | 1008.5 |
| 20260505054921 | 70 | 158 | 2.0 | 5.0 | 0.00 | 0.00 | 0.00 | 96 | 1008.5 |
| 20260505054418 | 70 | 193 | 3.0 | 6.0 | 0.00 | 0.00 | 0.00 | 95 | 1008.4 |
| 20260505053916 | 70 | 180 | 4.0 | 6.0 | 0.00 | 0.00 | 0.00 | 95 | 1008.4 |
| 20260505053413 | 70 | 201 | 1.0 | 6.0 | 0.00 | 0.00 | 0.00 | 95 | 1008.7 |
| 20260505052910 | 70 | 161 | 3.0 | 5.0 | 0.00 | 0.00 | 0.00 | 95 | 1008.8 |
| 20260505052406 | 70 | 203 | 3.0 | 7.0 | 0.00 | 0.00 | 0.00 | 95 | 1009.2 |
| 20260505051904 | 70 | 191 | 0.0 | 5.0 | 0.00 | 0.00 | 0.00 | 95 | 1008.9 |
| 20260505051401 | 70 | 195 | 3.0 | 5.0 | 0.00 | 0.00 | 0.00 | 95 | 1009.0 |
| 20260505050859 | 70 | 200 | 1.0 | 5.0 | 0.00 | 0.00 | 0.00 | 95 | 1009.1 |
| 20260505050357 | 70 | 195 | 0.0 | 3.0 | 0.00 | 0.00 | 0.00 | 95 | 1008.8 |
| 20260505041325 | 71 | 181 | 0.0 | 3.0 | 0.00 | 0.00 | 0.00 | 92 | 1009.2 |
| 20260505040821 | 71 | 202 | 1.0 | 2.0 | 0.00 | 0.00 | 0.00 | 92 | 1009.3 |
| 20260505040319 | 71 | 132 | 3.0 | 6.0 | 0.00 | 0.00 | 0.00 | 92 | 1009.3 |
| 20260505035816 | 71 | 171 | 2.0 | 5.0 | 0.00 | 0.00 | 0.00 | 92 | 1008.9 |
| 20260505035311 | 71 | 155 | 3.0 | 5.0 | 0.00 | 0.00 | 0.00 | 92 | 1009.0 |
| 20260505034809 | 71 | 166 | 3.0 | 5.0 | 0.00 | 0.00 | 0.00 | 92 | 1009.2 |
| 20260505034305 | 71 | 193 | 3.0 | 6.0 | 0.00 | 0.00 | 0.00 | 91 | 1009.3 |
| 20260505033803 | 71 | 174 | 0.0 | 5.0 | 0.00 | 0.00 | 0.00 | 91 | 1009.2 |
| 20260505033259 | 72 | 155 | 3.0 | 5.0 | 0.00 | 0.00 | 0.00 | 91 | 1009.1 |
| 20260505032758 | 72 | 188 | 2.0 | 3.0 | 0.00 | 0.00 | 0.00 | 91 | 1009.1 |
| 20260505032253 | 72 | 160 | 3.0 | 7.0 | 0.00 | 0.00 | 0.00 | 91 | 1009.4 |
| 20260505031750 | 72 | 161 | 6.0 | 9.0 | 0.00 | 0.00 | 0.00 | 91 | 1009.2 |
| 20260505031247 | 72 | 164 | 3.0 | 6.0 | 0.00 | 0.00 | 0.00 | 90 | 1009.2 |
| 20260505030744 | 72 | 165 | 2.0 | 3.0 | 0.00 | 0.00 | 0.00 | 90 | 1009.0 |
| 20260505030240 | 72 | 176 | 2.0 | 3.0 | 0.00 | 0.00 | 0.00 | 90 | 1009.3 |
| 20260505025736 | 72 | 168 | 2.0 | 5.0 | 0.00 | 0.00 | 0.00 | 89 | 1009.2 |
| 20260505025234 | 72 | 171 | 3.0 | 6.0 | 0.00 | 0.00 | 0.00 | 89 | 1009.2 |
| 20260505024732 | 72 | 176 | 1.0 | 8.0 | 0.00 | 0.00 | 0.00 | 89 | 1009.1 |
| 20260505024229 | 72 | 161 | 3.0 | 7.0 | 0.00 | 0.00 | 0.00 | 89 | 1009.1 |
| 20260505023726 | 73 | 167 | 5.0 | 8.0 | 0.00 | 0.00 | 0.00 | 89 | 1008.9 |
| 20260505023224 | 73 | 204 | 3.0 | 7.0 | 0.00 | 0.00 | 0.00 | 88 | 1008.9 |
| 20260505022721 | 73 | 165 | 2.0 | 7.0 | 0.00 | 0.00 | 0.00 | 88 | 1009.0 |
| 20260505022218 | 73 | 160 | 4.0 | 5.0 | 0.00 | 0.00 | 0.00 | 88 | 1008.8 |
| 20260505021714 | 73 | 154 | 9.0 | 10.0 | 0.00 | 0.00 | 0.00 | 88 | 1008.8 |
| 20260505021212 | 73 | 163 | 3.0 | 8.0 | 0.00 | 0.00 | 0.00 | 88 | 1009.0 |
| 20260505020707 | 73 | 188 | 3.0 | 7.0 | 0.00 | 0.00 | 0.00 | 87 | 1008.8 |
| 20260505020203 | 73 | 158 | 4.0 | 7.0 | 0.00 | 0.00 | 0.00 | 87 | 1008.8 |
| 20260505015701 | 73 | 162 | 6.0 | 8.0 | 0.00 | 0.00 | 0.00 | 87 | 1008.8 |
| 20260505015157 | 73 | 107 | 4.0 | 5.0 | 0.00 | 0.00 | 0.00 | 87 | 1008.7 |
| 20260505014654 | 74 | 175 | 2.0 | 8.0 | 0.00 | 0.00 | 0.00 | 86 | 1008.5 |
| 20260505014151 | 74 | 186 | 2.0 | 5.0 | 0.00 | 0.00 | 0.00 | 86 | 1008.5 |
| 20260505013648 | 74 | 204 | 3.0 | 8.0 | 0.00 | 0.00 | 0.00 | 85 | 1008.3 |
| 20260505013145 | 74 | 123 | 5.0 | 7.0 | 0.00 | 0.00 | 0.00 | 85 | 1008.5 |
| 20260505012644 | 74 | 125 | 4.0 | 8.0 | 0.00 | 0.00 | 0.00 | 85 | 1008.5 |
| 20260505012140 | 74 | 189 | 5.0 | 10.0 | 0.00 | 0.00 | 0.00 | 85 | 1008.5 |
| 20260505011635 | 74 | 178 | 3.0 | 5.0 | 0.00 | 0.00 | 0.00 | 85 | 1008.3 |
| 20260505011128 | 75 | 188 | 3.0 | 7.0 | 0.00 | 0.00 | 0.00 | 85 | 1008.6 |
| 20260505010628 | 75 | 126 | 3.0 | 7.0 | 0.00 | 0.00 | 0.00 | 84 | 1008.6 |
| 20260505010125 | 75 | 161 | 5.0 | 7.0 | 0.00 | 0.00 | 0.00 | 83 | 1008.2 |
| 20260505005621 | 75 | 194 | 4.0 | 8.0 | 0.00 | 0.00 | 0.00 | 83 | 1008.4 |
| 20260505005118 | 75 | 111 | 7.0 | 10.0 | 0.00 | 0.00 | 0.00 | 82 | 1008.4 |
| 20260505004615 | 76 | 145 | 4.0 | 10.0 | 0.00 | 0.00 | 0.00 | 82 | 1008.4 |
| 20260505004112 | 76 | 196 | 3.0 | 6.0 | 0.00 | 0.00 | 0.00 | 81 | 1008.4 |
| 20260505003609 | 76 | 223 | 4.0 | 6.0 | 0.00 | 0.00 | 0.00 | 81 | 1008.3 |
| 20260505003107 | 76 | 167 | 5.0 | 8.0 | 0.00 | 0.00 | 0.00 | 81 | 1008.2 |
| 20260505002602 | 76 | 169 | 3.0 | 8.0 | 0.00 | 0.00 | 0.00 | 81 | 1008.3 |
| 20260505002101 | 76 | 139 | 4.0 | 6.0 | 0.00 | 0.00 | 0.00 | 80 | 1008.3 |
| 20260505001558 | 76 | 151 | 6.0 | 7.0 | 0.00 | 0.00 | 0.00 | 80 | 1008.3 |
| 20260505001055 | 77 | 180 | 3.0 | 5.0 | 0.00 | 0.00 | 0.00 | 81 | 1008.1 |
| 20260505000552 | 77 | 157 | 1.0 | 6.0 | 0.00 | 0.00 | 0.00 | 80 | 1008.1 |
| 20260505000050 | 77 | 182 | 3.0 | 7.0 | 0.00 | 0.00 | 0.00 | 80 | 1008.0 |
| 20260504235546 | 77 | 134 | 4.0 | 6.0 | 0.00 | 0.00 | 0.00 | 80 | 1008.1 |
| 20260504235043 | 78 | 149 | 5.0 | 9.0 | 0.00 | 0.00 | 0.00 | 79 | 1008.3 |
| 20260504234540 | 78 | 155 | 4.0 | 8.0 | 0.00 | 0.00 | 0.00 | 78 | 1008.5 |
| 20260504234037 | 79 | 204 | 5.0 | 7.0 | 0.00 | 0.00 | 0.00 | 77 | 1008.4 |
| 20260504233532 | 79 | 168 | 1.0 | 1.0 | 0.00 | 0.00 | 0.00 | 78 | 1008.4 |
| 20260504233029 | 79 | 213 | 1.0 | 7.0 | 0.00 | 0.00 | 0.00 | 78 | 1008.4 |
| 20260504232526 | 79 | 135 | 5.0 | 9.0 | 0.00 | 0.00 | 0.00 | 78 | 1008.7 |
| 20260504232024 | 78 | 149 | 3.0 | 5.0 | 0.00 | 0.00 | 0.00 | 78 | 1008.7 |
| 20260504231521 | 79 | 127 | 4.0 | 6.0 | 0.00 | 0.00 | 0.00 | 78 | 1008.5 |
| 20260504231017 | 78 | 187 | 2.0 | 5.0 | 0.00 | 0.00 | 0.00 | 78 | 1008.6 |
| 20260504230513 | 79 | 156 | 5.0 | 10.0 | 0.00 | 0.00 | 0.00 | 77 | 1008.8 |
| 20260504230012 | 80 | 158 | 2.0 | 7.0 | 0.00 | 0.00 | 0.00 | 77 | 1008.9 |
| 20260504225509 | 79 | 106 | 7.0 | 8.0 | 0.00 | 0.00 | 0.00 | 76 | 1008.9 |
| 20260504225006 | 78 | 115 | 3.0 | 9.0 | 0.00 | 0.00 | 0.00 | 77 | 1008.7 |
| 20260504224502 | 78 | 151 | 5.0 | 8.0 | 0.00 | 0.00 | 0.00 | 76 | 1009.0 |
| 20260504223959 | 78 | 198 | 2.0 | 6.0 | 0.00 | 0.00 | 0.00 | 76 | 1008.8 |
| 20260504223456 | 78 | 145 | 2.0 | 2.0 | 0.00 | 0.00 | 0.00 | 76 | 1008.8 |
| 20260504222951 | 78 | 132 | 4.0 | 7.0 | 0.00 | 0.00 | 0.00 | 75 | 1008.9 |
| 20260504222449 | 78 | 205 | 6.0 | 7.0 | 0.00 | 0.00 | 0.00 | 75 | 1009.1 |
| 20260504221946 | 79 | 217 | 6.0 | 8.0 | 0.00 | 0.00 | 0.00 | 74 | 1009.2 |
| 20260504221444 | 79 | 172 | 5.0 | 8.0 | 0.00 | 0.00 | 0.00 | 74 | 1009.0 |
| 20260504220941 | 79 | 212 | 7.0 | 11.0 | 0.00 | 0.00 | 0.00 | 74 | 1009.3 |
| 20260504220437 | 79 | 168 | 3.0 | 7.0 | 0.00 | 0.00 | 0.00 | 74 | 1009.5 |
| 20260504215934 | 79 | 172 | 6.0 | 10.0 | 0.00 | 0.00 | 0.00 | 74 | 1009.4 |
| 20260504215431 | 79 | 192 | 3.0 | 7.0 | 0.00 | 0.00 | 0.00 | 74 | 1009.5 |
| 20260504214927 | 79 | 175 | 5.0 | 7.0 | 0.00 | 0.00 | 0.00 | 74 | 1009.5 |
| 20260504214424 | 79 | 219 | 6.0 | 7.0 | 0.00 | 0.00 | 0.00 | 73 | 1009.6 |
| 20260504213920 | 79 | 198 | 3.0 | 7.0 | 0.00 | 0.00 | 0.00 | 73 | 1009.5 |
| 20260504213416 | 79 | 212 | 8.0 | 11.0 | 0.00 | 0.00 | 0.00 | 73 | 1009.5 |
| 20260504212914 | 79 | 146 | 3.0 | 10.0 | 0.00 | 0.00 | 0.00 | 73 | 1009.6 |
| 20260504212409 | 80 | 158 | 4.0 | 8.0 | 0.00 | 0.00 | 0.00 | 73 | 1009.7 |
| 20260504211908 | 79 | 207 | 8.0 | 10.0 | 0.00 | 0.00 | 0.00 | 72 | 1009.9 |
| 20260504211404 | 79 | 202 | 3.0 | 6.0 | 0.00 | 0.00 | 0.00 | 72 | 1009.9 |
| 20260504210901 | 80 | 176 | 6.0 | 10.0 | 0.00 | 0.00 | 0.00 | 72 | 1009.8 |
| 20260504210358 | 80 | 214 | 4.0 | 8.0 | 0.00 | 0.00 | 0.00 | 71 | 1010.1 |
| 20260504205855 | 80 | 211 | 6.0 | 10.0 | 0.00 | 0.00 | 0.00 | 71 | 1010.1 |
| 20260504205353 | 80 | 172 | 3.0 | 8.0 | 0.00 | 0.00 | 0.00 | 70 | 1010.0 |
| 20260504204851 | 81 | 201 | 3.0 | 8.0 | 0.00 | 0.00 | 0.00 | 69 | 1010.3 |
| 20260504204349 | 82 | 160 | 3.0 | 6.0 | 0.00 | 0.00 | 0.00 | 69 | 1010.1 |
| 20260504203848 | 81 | 159 | 6.0 | 9.0 | 0.00 | 0.00 | 0.00 | 69 | 1010.3 |
| 20260504203344 | 81 | 202 | 5.0 | 8.0 | 0.00 | 0.00 | 0.00 | 69 | 1010.2 |
| 20260504202840 | 82 | 209 | 3.0 | 6.0 | 0.00 | 0.00 | 0.00 | 69 | 1010.3 |
| 20260504202338 | 81 | 181 | 6.0 | 11.0 | 0.00 | 0.00 | 0.00 | 70 | 1010.2 |
| 20260504201834 | 81 | 162 | 3.0 | 11.0 | 0.00 | 0.00 | 0.00 | 68 | 1010.4 |
| 20260504201331 | 80 | 149 | 3.0 | 7.0 | 0.00 | 0.00 | 0.00 | 69 | 1010.7 |
| 20260504200829 | 81 | 212 | 4.0 | 7.0 | 0.00 | 0.00 | 0.00 | 68 | 1010.7 |
| 20260504200325 | 81 | 184 | 1.0 | 6.0 | 0.00 | 0.00 | 0.00 | 69 | 1010.6 |
| 20260504195821 | 81 | 172 | 4.0 | 7.0 | 0.00 | 0.00 | 0.00 | 67 | 1010.7 |
| 20260504195317 | 81 | 125 | 3.0 | 7.0 | 0.00 | 0.00 | 0.00 | 68 | 1010.8 |
| 20260504194814 | 81 | 168 | 3.0 | 5.0 | 0.00 | 0.00 | 0.00 | 68 | 1011.0 |
| 20260504194310 | 81 | 214 | 5.0 | 7.0 | 0.00 | 0.00 | 0.00 | 69 | 1010.9 |
| 20260504193807 | 82 | 203 | 7.0 | 8.0 | 0.00 | 0.00 | 0.00 | 67 | 1011.1 |
| 20260504193304 | 81 | 146 | 4.0 | 7.0 | 0.00 | 0.00 | 0.00 | 68 | 1011.1 |
| 20260504192803 | 80 | 136 | 2.0 | 7.0 | 0.00 | 0.00 | 0.00 | 69 | 1011.2 |
| 20260504192300 | 80 | 192 | 2.0 | 7.0 | 0.00 | 0.00 | 0.00 | 68 | 1011.2 |
| 20260504191759 | 80 | 184 | 4.0 | 7.0 | 0.00 | 0.00 | 0.00 | 70 | 1011.2 |
| 20260504191255 | 80 | 165 | 5.0 | 10.0 | 0.00 | 0.00 | 0.00 | 67 | 1011.3 |
| 20260504190751 | 81 | 170 | 2.0 | 5.0 | 0.00 | 0.00 | 0.00 | 67 | 1011.2 |
| 20260504190247 | 81 | 166 | 6.0 | 10.0 | 0.00 | 0.00 | 0.00 | 68 | 1011.2 |
| 20260504185744 | 80 | 215 | 5.0 | 8.0 | 0.00 | 0.00 | 0.00 | 68 | 1011.4 |
| 20260504185241 | 80 | 196 | 3.0 | 5.0 | 0.00 | 0.00 | 0.00 | 69 | 1011.6 |
| 20260504184737 | 81 | 199 | 4.0 | 10.0 | 0.00 | 0.00 | 0.00 | 68 | 1011.8 |
| 20260504184233 | 81 | 147 | 4.0 | 6.0 | 0.00 | 0.00 | 0.00 | 66 | 1011.7 |
| 20260504183729 | 80 | 210 | 6.0 | 11.0 | 0.00 | 0.00 | 0.00 | 68 | 1011.5 |
| 20260504183226 | 81 | 212 | 5.0 | 7.0 | 0.00 | 0.00 | 0.00 | 67 | 1011.7 |
| 20260504182724 | 80 | 151 | 4.0 | 10.0 | 0.00 | 0.00 | 0.00 | 70 | 1011.9 |
| 20260504182221 | 80 | 197 | 6.0 | 9.0 | 0.00 | 0.00 | 0.00 | 66 | 1011.6 |
| 20260504181719 | 81 | 199 | 6.0 | 13.0 | 0.00 | 0.00 | 0.00 | 67 | 1011.7 |
| 20260504181216 | 80 | 196 | 4.0 | 7.0 | 0.00 | 0.00 | 0.00 | 66 | 1011.7 |
| 20260504180715 | 80 | 183 | 2.0 | 6.0 | 0.00 | 0.00 | 0.00 | 67 | 1011.7 |
| 20260504180213 | 80 | 151 | 3.0 | 8.0 | 0.00 | 0.00 | 0.00 | 68 | 1011.9 |
| 20260504175710 | 80 | 203 | 9.0 | 10.0 | 0.00 | 0.00 | 0.00 | 66 | 1012.1 |
| 20260504175207 | 80 | 202 | 3.0 | 10.0 | 0.00 | 0.00 | 0.00 | 68 | 1012.2 |
| 20260504174705 | 80 | 214 | 6.0 | 10.0 | 0.00 | 0.00 | 0.00 | 67 | 1012.3 |
| 20260504174203 | 79 | 198 | 6.0 | 10.0 | 0.00 | 0.00 | 0.00 | 68 | 1012.5 |
| 20260504173658 | 79 | 211 | 7.0 | 9.0 | 0.00 | 0.00 | 0.00 | 69 | 1012.4 |
| 20260504173156 | 79 | 175 | 4.0 | 7.0 | 0.00 | 0.00 | 0.00 | 67 | 1012.4 |
| 20260504172652 | 80 | 142 | 3.0 | 8.0 | 0.00 | 0.00 | 0.00 | 68 | 1012.5 |
| 20260504172149 | 79 | 169 | 3.0 | 9.0 | 0.00 | 0.00 | 0.00 | 69 | 1012.8 |
| 20260504171645 | 77 | 211 | 2.0 | 7.0 | 0.00 | 0.00 | 0.00 | 73 | 1012.7 |
| 20260504171143 | 78 | 166 | 3.0 | 8.0 | 0.00 | 0.00 | 0.00 | 72 | 1012.7 |
| 20260504170639 | 78 | 138 | 4.0 | 7.0 | 0.00 | 0.00 | 0.00 | 70 | 1012.8 |
| 20260504170137 | 79 | 212 | 6.0 | 14.0 | 0.00 | 0.00 | 0.00 | 70 | 1013.2 |
| 20260504151022 | 74 | 168 | 7.0 | 9.0 | 0.00 | 0.00 | 0.00 | 78 | 1013.9 |
| 20260504150520 | 75 | 175 | 4.0 | 8.0 | 0.00 | 0.00 | 0.00 | 77 | 1013.7 |
| 20260504140945 | 71 | 177 | 0.0 | 2.0 | 0.00 | 0.00 | 0.00 | 81 | 1013.8 |
| 20260504140442 | 70 | 170 | 2.0 | 3.0 | 0.00 | 0.00 | 0.00 | 81 | 1014.0 |
| 20260504130401 | 61 | 169 | 0.0 | 0.0 | 0.00 | 0.00 | 0.00 | 94 | 1013.5 |
| 20260504110248 | 55 | 177 | 0.0 | 0.0 | 0.00 | 0.00 | 0.00 | 99 | 1013.4 |
| 20260504100212 | 55 | 189 | 0.0 | 0.0 | 0.00 | 0.00 | 0.00 | 99 | 1013.8 |